Regional Weather Roundup
Issued by NWS Albany, NY

Home | Current Version | Previous Version | Text Only | Print | Product List | Glossary On
Versions: 1 2 3 4 5 6 7 8 9 10 11 12 13 14 15 16 17 18 19 20 21 22 23 24 25 26 27 28 29 30 31 32 33 34 35 36 37 38 39 40 41 42 43 44 45 46 47 48 49 50
000
ASUS41 KALY 010510
RWRALY

NEW YORK STATE HOURLY WEATHER ROUNDUP
NATIONAL WEATHER SERVICE ALBANY NY
1200 AM EST SUN FEB 01 2015

NOTE: "FAIR" INDICATES FEW OR NO CLOUDS BELOW 12,000 FEET WITH NO
SIGNIFICANT WEATHER AND/OR NO OBSTRUCTIONS TO VISIBILITY.

NYZ032-033-038>043-046>054-057>066-NYZ062>081-010600-
EAST


CITY           SKY/WX    TMP DP  RH WIND       PRES   REMARKS
ALBANY         FLURRIES  10   3  73 CALM      30.17F
GLENS FALLS    CLOUDY    -1  -8  72 CALM      30.16S
POUGHKEEPSIE   CLEAR      6  -3  66 CALM      30.17F
NEWBURGH       CLEAR     14   7  73 W14       30.16S WCI  -1
MONTGOMERY     PTCLDY    13   3  64 SW10      30.15F WCI   0
WHITE PLAINS   PTCLDY    17   5  59 W5        30.14F WCI  10
ISLIP          CLEAR     16   4  59 W6        30.17F WCI   7
NEW YORK CITY  CLEAR     21   7  54 NW9       30.21S WCI  11
CENTRAL PARK   CLEAR     20   5  52 MISG      30.21F
$$

NYZ005>009-017-018-044>046-055-056-010600-
CENTRAL


CITY           SKY/WX    TMP DP  RH WIND       PRES   REMARKS
FULTON         FLURRIES  19  11  70 S10       30.13F WCI   7
SYRACUSE       FLURRIES  13   8  81 CALM      30.14F
ROME           FLURRIES  11   5  77 E3        30.16F
ELMIRA         CLOUDY    13   7  77 CALM      30.14F
BINGHAMTON     CLOUDY    11   5  77 W6        30.06F WCI   1
MONTICELLO     CLOUDY    10   5  79 W6        30.08S WCI   1
$$

NYZ026>034-041>043-010600-
NORTH


CITY           SKY/WX    TMP DP  RH WIND       PRES   REMARKS
WATERTOWN      LGT SNOW  19  12  74 SW6       30.12F WCI  11
FORT DRUM      NOT AVBL
MASSENA        LGT SNOW   8   5  87 CALM      30.14F FOG
SARANAC LAKE   LGT SNOW   2  -1  88 S5        29.99F FOG     WCI  -8
PLATTSBURGH    CLOUDY    11   0  61 N3        30.13F
$$

NYZ001>004-010>016-019>021-010600-
WEST


CITY           SKY/WX    TMP DP  RH WIND       PRES   REMARKS
NIAGARA FALLS  CLOUDY    27  21  78 SW12      30.15S WCI  17
BUFFALO        FLURRIES  26  19  74 SW10      30.15S WCI  16
DUNKIRK        CLOUDY    28  18  66 SW12      30.17S WCI  18
JAMESTOWN      CLOUDY    21  16  79 SW10      30.12S WCI  10
WELLSVILLE     CLOUDY    20  13  74 W9        30.09S WCI   9
ROCHESTER      CLOUDY    27  19  72 W12       30.14S WCI  17
PENN YAN       CLOUDY    24  16  71 SW7       30.12S WCI  16
$$

             KEY
       WCI = WIND CHILL INDEX
       VSB = VISIBILITY
       HX  = HEAT INDEX
$$



USA.gov is the U.S. government's official web portal to all federal, state and local government web resources and services.